TimeMST,TemperatureF,Dew PointF,Humidity,Sea Level PressureIn,VisibilityMPH,Wind Direction,Wind SpeedMPH,Gust SpeedMPH,PrecipitationIn,Events,Conditions,WindDirDegrees,DateUTC
12:57 AM,60.1,54.0,80,29.93,10.0,Calm,Calm,-,N/A,,Clear,0,2013-07-15 07:57:00
1:57 AM,57.9,53.1,84,29.92,10.0,Calm,Calm,-,N/A,,Clear,0,2013-07-15 08:57:00
2:57 AM,57.0,52.0,83,29.94,10.0,Calm,Calm,-,N/A,,Clear,0,2013-07-15 09:57:00
3:57 AM,55.0,52.0,89,29.96,10.0,Calm,Calm,-,N/A,,Clear,0,2013-07-15 10:57:00
4:57 AM,57.0,52.0,83,29.94,10.0,Calm,Calm,-,N/A,,Overcast,0,2013-07-15 11:57:00
5:57 AM,57.0,53.1,87,29.95,10.0,Calm,Calm,-,N/A,,Scattered Clouds,0,2013-07-15 12:57:00
6:57 AM,62.1,54.0,75,29.93,10.0,Calm,Calm,-,N/A,,Clear,0,2013-07-15 13:57:00
7:57 AM,66.9,55.0,66,29.94,10.0,Calm,Calm,-,N/A,,Clear,0,2013-07-15 14:57:00
8:57 AM,68.0,53.1,59,29.94,10.0,Calm,Calm,-,N/A,,Clear,0,2013-07-15 15:57:00
9:57 AM,70.0,54.0,57,29.94,10.0,Calm,Calm,-,N/A,,Clear,0,2013-07-15 16:57:00
10:57 AM,71.1,53.1,53,29.94,10.0,Calm,Calm,-,N/A,,Clear,0,2013-07-15 17:57:00
11:57 AM,73.0,51.1,46,29.94,10.0,Calm,Calm,-,N/A,,Clear,0,2013-07-15 18:57:00
12:57 PM,78.1,48.9,36,29.90,10.0,Variable,4.6,-,N/A,,Clear,0,2013-07-15 19:57:00
1:57 PM,77.0,51.1,40,29.88,10.0,NNE,10.4,18.4,N/A,,Partly Cloudy,30,2013-07-15 20:57:00
2:57 PM,78.1,50.0,37,29.86,10.0,WNW,4.6,-,N/A,,Partly Cloudy,290,2013-07-15 21:57:00
3:57 PM,72.0,52.0,49,29.91,10.0,Variable,5.8,-,N/A,,Overcast,0,2013-07-15 22:57:00
4:57 PM,69.1,54.0,58,29.91,10.0,Calm,Calm,-,0.00,Rain,Light Rain,0,2013-07-15 23:57:00
5:57 PM,68.0,55.9,65,29.91,10.0,SSE,3.5,-,0.00,,Mostly Cloudy,150,2013-07-16 00:57:00
6:57 PM,69.1,53.1,57,29.89,10.0,Calm,Calm,-,N/A,,Overcast,0,2013-07-16 01:57:00
7:57 PM,66.9,53.1,61,29.92,10.0,Variable,4.6,-,N/A,,Overcast,0,2013-07-16 02:57:00
8:57 PM,63.0,55.0,75,29.95,10.0,ENE,9.2,-,N/A,,Overcast,70,2013-07-16 03:57:00
9:57 PM,61.0,57.0,87,29.96,10.0,East,8.1,-,N/A,,Partly Cloudy,80,2013-07-16 04:57:00
10:57 PM,61.0,55.9,83,29.96,10.0,ENE,5.8,-,N/A,,Mostly Cloudy,70,2013-07-16 05:57:00
11:57 PM,60.1,55.9,86,29.95,10.0,East,4.6,-,N/A,,Partly Cloudy,90,2013-07-16 06:57:00